Weather History for Crescent City, CA

Change the Weather History Date:

Tuesday, December 17, 2013

  Actual Average Record
Temperature  
Mean Temperature 47 °F 48 °F  
Max Temperature 60 °F 54 °F 67 °F (1954)
Min Temperature 34 °F 41 °F 31 °F (1988)
Degree Days  
Heating Degree Days 18 18  
Month to date heating degree days 378 300  
Since 1 July heating degree days 1970 1917  
Cooling Degree Days 0 0  
Month to date cooling degree days 0 0  
Year to date cooling degree days 4 0  
Moisture  
Dew Point 40 °F    
Average Humidity 74    
Maximum Humidity 100    
Minimum Humidity 47    
Precipitation  
Precipitation 0.00 in 0.41 in 1.83 in (1997)
Month to date precipitation 1.27 5.51  
Year to date precipitation 28.88 58.27  
Since 1 July precipitation 8.95 21.34  
Snow  
Snow 0.00 in - - ()
Month to date snowfall 0.0  
Since 1 July snowfall 0.0  
Snow Depth 0.00 in    
Sea Level Pressure  
Sea Level Pressure 30.15 in    
Wind  
Wind Speed 5 mph (North)    
Max Wind Speed 12 mph    
Max Gust Speed 15 mph    
Visibility 5 miles    
Events Fog    
T = Trace of Precipitation, MM = Missing Value Source: NWS Daily Summary

Daily Weather History Graph

Daily Weather History Graph

Search for Another Location

Airport:

Trip Planner

Search our weather history database for the weather conditions in past years. The results will help you decide how hot, cold, wet, or windy it might be!

Date:

Astronomy

Dec. 17, 2013 Rise Set
Actual Time 7:38 AM PST 4:47 PM PST
Civil Twilight 7:07 AM PST 5:19 PM PST
Nautical Twilight 6:32 AM PST 5:54 PM PST
Astronomical Twilight 5:58 AM PST 6:28 PM PST
Moon 5:33 PM PST (12/17) 7:38 AM PST (12/17)
Length of Visible Light 10h 12m
Length of Day
9h 08m
Full, 100% of the Moon is Illuminated
Dec 17
Full
Dec 25
Last Quarter
Jan 1
New
Jan 7
First Quarter
Jan 15
Full

Hourly Weather History & Observations

Time (PST) Temp. Windchill Dew Point Humidity Pressure Visibility Wind Dir Wind Speed Gust Speed Precip Events Conditions
12:56 AM 45.0 °F 41.8 °F 39.0 °F 80% 30.15 in 10.0 mi ESE 5.8 mph - N/A   Clear
1:56 AM 39.9 °F - 37.0 °F 89% 30.15 in 10.0 mi Calm Calm - N/A   Clear
2:56 AM 39.0 °F - 36.0 °F 89% 30.16 in 10.0 mi Calm Calm - N/A   Clear
3:56 AM 43.0 °F 39.5 °F 36.0 °F 76% 30.15 in 10.0 mi East 5.8 mph - N/A   Clear
4:56 AM 44.1 °F 40.8 °F 35.1 °F 71% 30.16 in 10.0 mi East 5.8 mph - N/A   Clear
5:56 AM 41.0 °F 37.1 °F 36.0 °F 82% 30.17 in 2.0 mi NNW 5.8 mph - N/A   Haze
6:03 AM 39.9 °F 35.8 °F 36.0 °F 86% 30.17 in 1.5 mi NNW 5.8 mph - N/A   Clear
6:10 AM 39.9 °F 37.8 °F 37.0 °F 89% 30.18 in 3.0 mi North 3.5 mph - N/A   Clear
6:56 AM 36.0 °F 33.3 °F 33.1 °F 89% 30.19 in 10.0 mi NE 3.5 mph - N/A   Clear
7:56 AM 37.9 °F - 35.1 °F 89% 30.19 in 9.0 mi Calm Calm - N/A   Clear
8:56 AM 46.9 °F - 37.0 °F 68% 30.19 in 10.0 mi ENE 4.6 mph - N/A   Clear
9:56 AM 55.0 °F - 37.9 °F 53% 30.20 in 10.0 mi East 5.8 mph - N/A   Clear
10:56 AM 59.0 °F - 39.0 °F 48% 30.19 in 10.0 mi Variable 4.6 mph - N/A   Clear
11:04 AM 52.0 °F - 44.1 °F 74% 30.18 in 5.0 mi NW 8.1 mph - N/A   Haze
11:56 AM 54.0 °F - 39.0 °F 57% 30.17 in 10.0 mi NW 6.9 mph - N/A   Clear
12:56 PM 54.0 °F - 41.0 °F 62% 30.15 in 9.0 mi NNW 11.5 mph - N/A   Clear
1:56 PM 51.1 °F - 44.1 °F 77% 30.14 in 10.0 mi NW 9.2 mph - N/A   Clear
2:56 PM 51.1 °F - 45.0 °F 80% 30.13 in 8.0 mi NNW 9.2 mph - N/A   Clear
3:56 PM 50.0 °F - 44.1 °F 80% 30.13 in 5.0 mi NNW 6.9 mph - N/A   Haze
4:56 PM 46.0 °F 42.5 °F 43.0 °F 89% 30.12 in 3.0 mi NW 6.9 mph - N/A   Clear
5:56 PM 46.0 °F 42.5 °F 44.1 °F 93% 30.13 in 5.0 mi NNW 6.9 mph - N/A   Clear
6:56 PM 46.0 °F 42.5 °F 44.1 °F 93% 30.13 in 4.0 mi NW 6.9 mph - N/A   Clear
7:56 PM 46.0 °F 41.9 °F 44.1 °F 93% 30.13 in 4.0 mi NW 8.1 mph - N/A   Clear
8:34 PM 45.0 °F 41.8 °F 44.1 °F 97% 30.13 in 2.5 mi NNW 5.8 mph - N/A   Clear
8:41 PM 45.0 °F 42.6 °F 44.1 °F 97% 30.13 in 2.0 mi North 4.6 mph - N/A   Partly Cloudy
8:56 PM 45.0 °F - 44.1 °F 97% 30.13 in 3.0 mi Calm Calm - N/A   Partly Cloudy
9:10 PM 43.0 °F 41.3 °F 42.1 °F 97% 30.13 in 2.0 mi ESE 3.5 mph - N/A   Partly Cloudy
9:14 PM 42.1 °F - 41.0 °F 96% 30.13 in 1.2 mi Calm Calm - N/A   Partly Cloudy
9:24 PM 42.1 °F - 41.0 °F 96% 30.13 in 1.0 mi Calm Calm - N/A   Mist
9:31 PM 41.0 °F 38.0 °F 39.9 °F 96% 30.13 in 0.5 mi SSW 4.6 mph - N/A Fog Fog
9:49 PM 39.9 °F 36.7 °F 39.0 °F 97% 30.13 in 0.5 mi SSE 4.6 mph - N/A Fog Fog
9:56 PM 41.0 °F 39.0 °F 39.9 °F 96% 30.13 in 0.8 mi South 3.5 mph - N/A   Mist
10:33 PM 39.9 °F - 39.9 °F 100% 30.13 in 1.0 mi Calm Calm - N/A   Mist
10:40 PM 39.0 °F - 37.9 °F 96% 30.13 in 0.5 mi Calm Calm - N/A Fog Fog
10:56 PM 37.0 °F - 36.0 °F 96% 30.14 in 0.5 mi Calm Calm - N/A Fog Fog
11:56 PM 39.0 °F 36.8 °F 37.0 °F 93% 30.13 in 1.2 mi East 3.5 mph - N/A   Mostly Cloudy
11:59 PM 37.9 °F 35.5 °F 37.0 °F 97% 30.12 in 1.5 mi East 3.5 mph - N/A   Scattered Clouds